AO-07 1 07530U 74089B 21350.52689690 -.00000037 00000-0 56075-4 0 9997 2 07530 101.8810 325.0010 0012457 33.2610 75.9431 12.53651891154540 UO-11 1 14781U 84021B 21350.93377763 .00000221 00000-0 32977-4 0 9999 2 14781 97.6033 341.8985 0007973 191.7580 168.3450 14.83383313 33983 LO-19 1 20442U 90005G 21350.44725584 .00000000 00000-0 16669-4 0 9998 2 20442 98.7681 307.7930 0011614 351.7397 8.3594 14.33010532666896 HUBBLE 1 20580U 90037B 21350.31138440 .00000789 00000-0 36540-4 0 9995 2 20580 28.4708 301.5956 0002549 217.9357 268.5393 15.09878285538509 MET-2/21 1 22782U 93055A 21350.87149145 .00000046 00000-0 28059-4 0 9991 2 22782 82.5476 159.1501 0023153 137.7845 330.5552 13.83842919429024 AO-27 1 22825U 93061C 21350.98320962 .00000020 00000-0 25798-4 0 9995 2 22825 98.9061 12.9796 0007809 217.9004 142.1628 14.30135191472347 IO-26 1 22826U 93061D 21350.98019888 .00000023 00000-0 26679-4 0 9990 2 22826 98.9004 12.8692 0008544 204.4704 155.6073 14.30476532472579 FO-29 1 24278U 96046B 21350.57246457 -.00000030 00000-0 41439-5 0 9999 2 24278 98.5427 34.2075 0350960 37.8262 324.6993 13.53108082250871 NOAA-15 1 25338U 98030A 21351.00124840 .00000064 00000-0 45031-4 0 9999 2 25338 98.6649 17.7360 0011389 108.0385 252.2036 14.26076014227266 GO-32 1 25397U 98043D 21350.42686603 -.00000002 00000-0 18807-4 0 9997 2 25397 98.7946 295.6588 0000299 316.0019 44.1135 14.23724533217387 ISS 1 25544U 98067A 21350.64329094 .00001372 00000-0 33102-4 0 9994 2 25544 51.6418 160.5295 0004218 318.5317 134.4463 15.48973774316873 NO-44 1 26931U 01043C 21350.92238280 .00000017 00000-0 38076-4 0 9990 2 26931 67.0493 169.5142 0006162 280.3201 79.7206 14.30648289 55456 SO-50 1 27607U 02058C 21350.58478175 .00000090 00000-0 33287-4 0 9999 2 27607 64.5540 141.3497 0063077 332.0075 27.7639 14.75846586 21382 CO-55 1 27844U 03031E 21351.02600268 .00000099 00000-0 64153-4 0 9999 2 27844 98.6801 356.4719 0008835 270.4655 89.5511 14.22358881957975 CO-57 1 27848U 03031J 21351.00347994 .00000076 00000-0 54398-4 0 9990 2 27848 98.6852 356.9991 0008744 286.0114 74.0100 14.21929147957784 RS-22 1 27939U 03042A 21350.76428377 .00000277 00000-0 57981-4 0 9994 2 27939 98.1644 126.8821 0014079 67.5775 292.6923 14.67077745974258 NOAA-18 1 28654U 05018A 21350.75934096 .00000125 00000-0 91424-4 0 9995 2 28654 98.9739 56.1567 0015110 126.1419 234.1153 14.12666991854274 CO-58 1 28895U 05043F 21350.84793040 .00000233 00000-0 53502-4 0 9997 2 28895 98.0826 120.3880 0016541 0.6079 359.5141 14.64024582860927 Falconsat-3 1 30776U 07006E 21350.23944405 .00009110 00000-0 19873-3 0 9990 2 30776 35.4350 9.8928 0002519 171.5438 188.5333 15.43491352821185 CO-65 1 32785U 08021C 21350.46898706 .00000505 00000-0 59338-4 0 9997 2 32785 97.6342 322.4907 0014191 116.9230 243.3439 14.88927601739253 AAUSAT2 1 32788U 08021F 21350.91606032 .00001755 00000-0 16109-3 0 9995 2 32788 97.5184 338.1027 0012187 24.7162 335.4642 14.96021886741238 DO-64 1 32789U 08021G 21350.84675021 .00003603 00000-0 22490-3 0 9996 2 32789 97.3592 19.1249 0010211 229.4662 130.5679 15.10066718744447 CO-66 1 32791U 08021J 21350.43495490 .00000850 00000-0 89694-4 0 9995 2 32791 97.5911 328.1713 0014597 80.9338 279.3532 14.91700797739902 RS-30 1 32953U 08025A 21350.36088851 .00000021 00000-0 80971-4 0 9999 2 32953 82.5029 297.7889 0018819 303.0982 56.8296 12.43106350615588 PRISM 1 33493U 09002B 21350.89745559 .00000925 00000-0 83358-4 0 9993 2 33493 98.2132 322.5255 0016278 45.3367 314.9178 14.98177027701642 NOAA-19 1 33591U 09005A 21350.59878147 .00000069 00000-0 62567-4 0 9990 2 33591 99.1695 15.6994 0013629 345.2619 14.8152 14.12515145662371 SRMSAT 1 37841U 11058D 21350.50955918 .00000342 00000-0 43023-4 0 9996 2 37841 19.9723 280.7117 0012022 133.8697 21.6699 14.10715636525375 HRBE 1 37855U 11061F 21350.98800028 .00003417 00000-0 16612-3 0 9997 2 37855 101.7224 9.3883 0162990 247.3405 111.0503 15.08950987554164 RS-40 1 38735U 12041C 21350.48128316 -.00000018 00000-0 -20399-3 0 9995 2 38735 82.4800 19.5922 0018121 52.7257 307.5466 12.42583630425791 ZACUBE-1 1 39417U 13066B 21350.93195091 .00000571 00000-0 77089-4 0 9996 2 39417 97.6141 326.0269 0056990 283.4400 76.0466 14.81718282436095 Delfi-N3xt 1 39428U 13066N 21350.80174234 .00000616 00000-0 10374-3 0 9993 2 39428 97.7997 288.3178 0119890 140.9461 220.0477 14.68292362431908 GOMX-1 1 39430U 13066Q 21351.00974546 .00000254 00000-0 55119-4 0 9998 2 39430 97.8144 263.5950 0148821 259.9020 98.5372 14.59772598429674 LO-74 1 39440U 13066AA 21350.90832035 .00000685 00000-0 10071-3 0 9998 2 39440 97.7020 311.5045 0079834 4.6990 355.4952 14.76425319434540 AO-73 1 39444U 13066AE 21350.93724690 .00000675 00000-0 88016-4 0 9996 2 39444 97.6034 328.4217 0055935 272.5023 86.9788 14.82666890435064 SPROUT 1 39770U 14029E 21350.89758110 .00001346 00000-0 14906-3 0 9999 2 39770 97.9286 102.2233 0007999 334.8980 25.1858 14.88996992410482 DTUSAT-2 1 40030U 14033W 21350.52371401 .00000611 00000-0 70528-4 0 9996 2 40030 97.9264 277.8077 0010580 300.4768 59.5404 14.89220449406411 EO-80 1 40032U 14033Y 21350.29022900 .00000619 00000-0 71453-4 0 9995 2 40032 97.9269 277.5837 0010587 302.3038 57.7153 14.89182429406356 HODOYOSHI-1 1 40299U 14070B 21350.46222159 .00001053 00000-0 44551-4 0 9990 2 40299 97.2691 58.9805 0014311 68.1325 52.2039 15.25271126395156 FIREBIRD FU3 1 40377U 15003B 21350.76938239 .00007094 00000-0 24673-3 0 9993 2 40377 99.1122 170.7132 0111807 281.3427 77.5260 15.24339995380551 FIREBIRD FU4 1 40378U 15003C 21350.73889274 .00007032 00000-0 24407-3 0 9992 2 40378 99.1128 170.8496 0111833 281.2013 77.6665 15.24404656380558 GRIFEX 1 40379U 15003D 21350.90749460 .00003582 00000-0 14218-3 0 9999 2 40379 99.1138 158.7427 0123985 317.7256 41.4466 15.19446753379884 NO-84 1 40654U 15025D 21349.32087043 .00588408 19781-3 51646-3 0 2921 2 40654 54.9622 252.8324 0021429 181.3125 178.8260 16.11988812 35672 XW-2A 1 40903U 15049E 21350.81455637 .00005004 00000-0 99679-4 0 9998 2 40903 97.2131 44.6927 0013434 71.8183 39.6004 15.47268102350978 XW-2C 1 40906U 15049H 21350.88458632 .00001233 00000-0 65170-4 0 9995 2 40906 97.4905 351.0720 0012625 275.3729 201.3620 15.17299097345224 XW-2D 1 40907U 15049J 21350.96215833 .00001314 00000-0 68472-4 0 9997 2 40907 97.4894 351.0148 0011962 270.3154 173.2467 15.17695033345277 LILACSAT-2 1 40908U 15049K 21350.50771402 .00000474 00000-0 29122-4 0 9992 2 40908 97.5115 348.1345 0014192 293.4351 222.5512 15.14763978344789 XW-2E 1 40909U 15049L 21350.48484352 .00002096 00000-0 99077-4 0 9993 2 40909 97.4674 354.7803 0011092 254.1301 259.2640 15.20469707345584 XW-2F 1 40910U 15049M 21350.48231699 .00002115 00000-0 10140-3 0 9994 2 40910 97.4743 353.8746 0012181 254.5409 258.6656 15.19965300345366 XW-2B 1 40911U 15049N 21350.52033068 .00001410 00000-0 73442-4 0 9992 2 40911 97.4893 351.2289 0011924 274.3806 204.8615 15.17604091345095 DCBB 1 40912U 15049P 21350.49849059 .00002258 00000-0 99955-4 0 9992 2 40912 97.4434 358.2706 0012675 219.8212 293.7964 15.22628513345889 TW-1A 1 40928U 15051D 21350.54216847 .00008229 00000-0 15373-3 0 9996 2 40928 97.0624 11.2563 0008415 357.3837 159.5230 15.48964753349840 IO-86 1 40931U 15052B 21347.11771532 .00000949 00000-0 42927-4 0 9994 2 40931 5.9974 58.1361 0013542 48.6215 311.5026 14.76711593335753 ATHENOXAT-1 1 41168U 15077C 21350.42322653 .00003111 00000-0 11819-3 0 9997 2 41168 14.9944 2.1272 0010239 193.2839 204.2753 15.16861952332440 ChubuSat-2 1 41338U 16012B 21350.52519477 .00000701 00000-0 47212-4 0 9998 2 41338 31.0026 107.9782 0013483 138.6080 221.5579 15.00726249319978 ChubuSat-3 1 41339U 16012C 21350.73069468 .00000504 00000-0 31935-4 0 9998 2 41339 31.0101 103.7219 0013240 148.1245 212.0203 15.00857286320003 Horyu-4 1 41340U 16012D 21350.57061172 .00001162 00000-0 79390-4 0 9994 2 41340 31.0051 85.9531 0013590 182.3448 177.7125 15.02220220320194 e-st@r-II 1 41459U 16025D 21350.47857430 .00005685 00000-0 26941-3 0 9995 2 41459 98.1635 137.9892 0157003 168.4164 192.0752 15.09441987309862 AAUSAT4 1 41460U 16025E 21350.36834436 .00007388 00000-0 32775-3 0 9990 2 41460 98.1607 142.7365 0142013 149.5228 211.4503 15.13217333310209 LO-87 1 41557U 16033B 21350.48350205 .00002530 00000-0 87792-4 0 9990 2 41557 97.3927 83.5302 0011216 314.4833 174.3360 15.30681403309365 NuSat2 1 41558U 16033C 21350.75507924 .00002857 00000-0 92544-4 0 9996 2 41558 97.4075 88.5116 0010079 304.5579 177.0599 15.32818328309636 Lapan A3 1 41603U 16040E 21350.93839212 .00000185 00000-0 11519-4 0 9998 2 41603 97.2332 30.7007 0015123 83.2308 40.3169 15.20194143304308 Pratham 1 41783U 16059A 21350.57612453 .00000139 00000-0 35756-4 0 9991 2 41783 97.9410 34.2081 0034165 33.4999 326.8355 14.63200944278887 TY-1 1 41844U 16066D 21350.48585390 .00001639 00000-0 65420-4 0 9993 2 41844 97.3958 358.8736 0013074 209.8557 305.5634 15.26543183283664 CAS-2T 1 41847U 16066G 21350.88688473 .00000189 00000-0 38117-4 0 9998 2 41847 98.5786 50.5514 0365536 35.8048 326.7060 14.38301062268104 EO-88 1 42017U 17008BX 21350.12498391 .00005046 00000-0 17813-3 0 9996 2 42017 97.2967 54.4136 0005974 167.4150 192.7241 15.29658641269019 CAS-4B 1 42759U 17034B 21350.50188586 .00000743 00000-0 57406-4 0 9994 2 42759 43.0181 259.9812 0008506 230.4220 298.6618 15.10615245248671 CAS-4A 1 42761U 17034D 21350.59553824 .00000703 00000-0 54890-4 0 9997 2 42761 43.0179 258.3859 0008757 232.3968 193.0687 15.10701531248693 NIUSat 1 42766U 17036B 21350.55934827 .00002887 00000-0 12328-3 0 9990 2 42766 97.2283 30.0606 0013056 251.4030 108.5790 15.23593005248932 Aalto 1 1 42775U 17036L 21350.41533304 .00001744 00000-0 76119-4 0 9990 2 42775 97.2243 30.0580 0011626 251.1089 108.8889 15.23377264248895 URSA MAIOR 1 42776U 17036M 21350.57936160 .00002259 00000-0 96779-4 0 9991 2 42776 97.2257 30.7951 0011403 249.4119 110.5896 15.23721605248943 Max Valier Sat 1 42778U 17036P 21350.70718101 .00002308 00000-0 96765-4 0 9991 2 42778 97.2326 33.1867 0009997 250.0276 109.9886 15.24438527249044 Pegasus 1 42784U 17036V 21350.60088766 .00003416 00000-0 13770-3 0 9999 2 42784 97.2277 33.6810 0009433 252.9838 107.0367 15.25452773249110 NUDATSat 1 42787U 17036Y 21351.06511133 .00003576 00000-0 13342-3 0 9994 2 42787 97.2317 37.2134 0008352 242.2991 117.7403 15.28010714249205 SUCHAI 1 1 42788U 17036Z 21350.55908280 .00004253 00000-0 16556-3 0 9994 2 42788 97.2285 34.8927 0009009 248.6481 111.3797 15.26484952249255 SKCUBE 1 42789U 17036AA 21350.55930528 .00003911 00000-0 15416-3 0 9999 2 42789 97.2281 34.5082 0008911 249.2981 110.7303 15.26121256249154 VZLUSAT 1 1 42790U 17036AB 21350.40864341 .00005212 00000-0 19351-3 0 9992 2 42790 97.2318 36.5615 0008233 242.4115 117.6289 15.27960750249253 VENTA 1 1 42791U 17036AC 21350.55161071 .00003437 00000-0 13648-3 0 9999 2 42791 97.2278 34.4825 0008566 250.3858 109.6456 15.25959190249149 Robusta 1B 1 42792U 17036AD 21350.69317367 .00004276 00000-0 16681-3 0 9998 2 42792 97.2282 35.0951 0008501 248.8007 111.2324 15.26418610249218 D-SAT 1 42794U 17036AF 21350.48062728 .00000699 00000-0 65047-4 0 9991 2 42794 97.4544 0.6517 0124352 338.1596 21.4348 14.91826606244197 TechnoSat 1 42829U 17042E 21350.61740582 .00000467 00000-0 51912-4 0 9992 2 42829 97.4412 210.2041 0012591 257.8903 102.0906 14.91429806240835 QIKCOM-1 1 42983U 98067NF 21350.54449246 .00020713 00000-0 15802-3 0 9997 2 42983 51.6363 51.0975 0003264 329.1954 30.8852 15.72181328235999 AO-91 1 43017U 17073E 21350.70515807 .00001319 00000-0 10482-3 0 9999 2 43017 97.6925 247.3351 0254709 65.5822 297.1739 14.80012728220077 PICSAT 1 43132U 18004X 21350.17513268 .00004140 00000-0 15847-3 0 9997 2 43132 97.3942 63.0472 0007138 290.4950 69.5522 15.27098448218401 AO-92 1 43137U 18004AC 21350.46654265 .00002917 00000-0 11544-3 0 9997 2 43137 97.3914 62.5649 0006930 293.2268 66.8240 15.26237460218413 TianYi 2 1 43155U 18008A 21350.50401332 .00001601 00000-0 93640-4 0 9998 2 43155 97.3813 49.8417 0018428 62.0806 62.6549 15.13122980215595 Zhou Enlai 1 43156U 18008B 21350.48349662 .00001010 00000-0 61050-4 0 9997 2 43156 97.3852 49.6654 0015647 62.6465 62.4573 15.12770518215520 TianYi 6 1 43158U 18008D 21350.48733894 .00001440 00000-0 87113-4 0 9998 2 43158 97.3810 47.9720 0014831 61.5618 356.6513 15.12099107215444 S-Net D 1 43186U 18014G 21350.68238393 .00000965 00000-0 88189-4 0 9997 2 43186 97.6682 254.8772 0010802 182.6578 177.4588 14.97265566211561 S-Net B 1 43187U 18014H 21350.54871611 .00000952 00000-0 87076-4 0 9999 2 43187 97.6679 254.7056 0010791 183.0700 177.0458 14.97264627211548 S-Net A 1 43188U 18014J 21350.48207139 .00000885 00000-0 81353-4 0 9998 2 43188 97.6683 254.6936 0010778 183.3575 176.7577 14.97263157211532 S-Net C 1 43189U 18014K 21350.54942635 .00000983 00000-0 89739-4 0 9998 2 43189 97.6679 254.6971 0010779 182.9263 177.1897 14.97263191210095 FMN 1 1 43192U 18015A 21350.60335854 .00004781 00000-0 16569-3 0 9999 2 43192 97.5112 127.4154 0012515 322.2992 97.0180 15.30259277215423 Shaonian Xing 1 43199U 18015H 21350.60390765 .00003220 00000-0 11659-3 0 9990 2 43199 97.4897 123.8234 0014302 333.5241 155.0932 15.29062330215460 SurfSat 1 43614U 18070B 21350.55058753 .00009690 00000-0 20635-3 0 9996 2 43614 93.0228 21.9621 0014192 27.1905 333.0093 15.44830672182750 CP-7 DAVE 1 43615U 18070C 21350.60816127 .00008957 00000-0 19342-3 0 9998 2 43615 93.0232 21.9132 0014418 27.2430 332.9580 15.44417764182749 ELFIN-B 1 43616U 18070D 21350.58685949 .00016354 00000-0 30009-3 0 9995 2 43616 93.0181 22.3942 0013267 23.0515 337.1338 15.49131869182928 ELFIN-A 1 43617U 18070E 21350.60466505 .00016347 00000-0 29183-3 0 9997 2 43617 93.0239 23.4445 0012354 20.4613 339.7140 15.49930071182953 CubeBel-1 1 43666U 18083E 21350.90038488 .00001965 00000-0 93685-4 0 9992 2 43666 97.4408 16.9093 0012588 249.6576 232.3047 15.20226407173720 Changshagaoxin 1 43669U 18083H 21350.96937736 .00001863 00000-0 92335-4 0 9993 2 43669 97.4332 13.5010 0008738 245.9534 208.8943 15.18958129173583 Ten-Koh 1 43677U 18084G 21350.91829313 .00000380 00000-0 44619-4 0 9994 2 43677 97.9416 114.6903 0016694 149.4255 210.7939 14.90619110170488 PO-101 1 43678U 18084H 21350.42682313 -.00000242 00000-0 -18160-4 0 9999 2 43678 97.9465 116.9172 0010162 162.2145 197.9426 14.91847052170566 IRVINE 01 1 43693U 18088D 21350.51232131 .00008993 00000-0 32525-3 0 9998 2 43693 85.0345 73.7370 0016998 75.4511 284.8618 15.28129501172219 QO-100 1 43700U 18090A 21350.68249396 .00000163 00000-0 00000 0 0 9999 2 43700 0.0180 335.8437 0002341 311.6935 69.5196 1.00273555 11440 Reaktor Hello World 1 43743U 18096AA 21350.47683648 .00003479 00000-0 12197-3 0 9998 2 43743 97.3728 66.5776 0016318 356.6541 3.4587 15.30015799169952 MinXSS-2 1 43758U 18099A 21350.47741376 .00001358 00000-0 12470-3 0 9998 2 43758 97.6493 57.7351 0016237 154.1550 206.0486 14.96371011165736 AO-95 1 43770U 18099N 21350.91739207 .00000638 00000-0 62501-4 0 9992 2 43770 97.6461 56.9001 0014933 162.5319 197.6419 14.95589967165725 RANGE-B 1 43772U 18099Q 21350.43660319 .00000446 00000-0 44769-4 0 9991 2 43772 97.6563 57.7291 0014691 151.1752 209.0284 14.95976371165666 RANGE-A 1 43773U 18099R 21350.47144894 .00000911 00000-0 87456-4 0 9998 2 43773 97.6395 55.5929 0014286 150.6670 209.5356 14.95413563165649 MOVE-II 1 43780U 18099Y 21350.66283057 .00001451 00000-0 13305-3 0 9993 2 43780 97.6488 57.4241 0014027 159.3195 200.8597 14.96355548165717 SNUSat 2 1 43782U 18099AA 21350.45346679 .00000554 00000-0 54630-4 0 9992 2 43782 97.6462 56.8517 0013443 149.9675 210.2320 14.95810855165679 SnugLite 1 43784U 18099AC 21350.91365635 .00000520 00000-0 51411-4 0 9995 2 43784 97.6424 56.9810 0015565 156.3481 203.8460 14.95957405165766 ITASat 1 1 43786U 18099AE 21350.46822885 .00000998 00000-0 94198-4 0 9990 2 43786 97.6486 57.2658 0015804 156.8572 203.3365 14.95848450165692 EAGLET 1 1 43790U 18099AJ 21350.46159000 .00000682 00000-0 65504-4 0 9996 2 43790 97.6474 57.7413 0014028 160.1202 200.0569 14.96163187165422 ESEO 1 43792U 18099AL 21350.47890757 .00000662 00000-0 64252-4 0 9997 2 43792 97.6440 57.1923 0013906 156.2871 203.8994 14.95856426165471 CSIM 1 43793U 18099AM 21350.98488756 .00001022 00000-0 93578-4 0 9990 2 43793 97.6482 58.4392 0013589 152.2984 207.8965 14.97026276165577 Astrocast 0.1 1 43798U 18099AS 21350.98220984 .00000547 00000-0 53120-4 0 9992 2 43798 97.6483 58.5333 0013201 138.8818 221.3401 14.96468570165815 JO-97 1 43803U 18099AX 21350.46601993 .00001106 00000-0 10310-3 0 9990 2 43803 97.6447 57.0009 0015766 156.5460 203.6484 14.96151645165708 Suomi 100 1 43804U 18099AY 21350.74332121 .00001281 00000-0 11868-3 0 9999 2 43804 97.6447 57.2213 0015819 155.3093 204.8889 14.96111735165759 Al Farabi 2 1 43805U 18099AZ 21350.57992956 .00000106 00000-0 14419-4 0 9990 2 43805 97.6469 57.3872 0015608 155.2891 204.9083 14.96402995165744 CHOMPTT 1 43855U 18104G 21350.55517288 .00002962 00000-0 11734-3 0 9999 2 43855 85.0358 172.7684 0016145 186.8141 173.2886 15.24837111166839 ISAT 1 43879U 18111D 21351.03496422 .00001329 00000-0 12051-3 0 9992 2 43879 97.6747 254.9628 0011851 204.7228 155.3429 14.96965082160365 UWE-4 1 43880U 18111E 21350.99503694 .00000503 00000-0 48450-4 0 9994 2 43880 97.6777 255.5109 0011346 208.0712 151.9899 14.97176060160392 Sparrow 1 43881U 18111F 21351.02498851 .00001505 00000-0 13486-3 0 9991 2 43881 97.6796 255.7112 0011437 202.3508 157.7217 14.97252532160400 Lume 1 1 43908U 18111AJ 21351.00196711 .00003419 00000-0 13011-3 0 9999 2 43908 97.2132 239.7294 0020310 8.9027 351.2569 15.27228684165523 FO-98 1 43933U 19003B 21350.62831745 .00034124 00000-0 10101-2 0 9991 2 43933 97.1640 25.8361 0014687 101.0331 259.2565 15.34704269161969 FO-99 1 43937U 19003F 21350.58473226 .00003876 00000-0 14811-3 0 9999 2 43937 97.1554 26.3634 0024246 86.4061 273.9951 15.26909849162048 MYSat 1 1 44045U 18092F 21350.15350909 .00011447 00000-0 26402-3 0 9994 2 44045 51.6365 257.7727 0010566 142.8370 217.3349 15.42995607159489 AstroCast 0.2 1 44083U 19018F 21350.69373958 .00003178 00000-0 13507-3 0 9997 2 44083 97.3511 48.2300 0013619 57.1534 303.1012 15.23686761150639 AISTechSat 3 1 44103U 19018AB 21350.63620980 .00001788 00000-0 74572-4 0 9999 2 44103 97.3378 48.6166 0014378 65.3465 87.1480 15.24885805150767 AISat 1 1 44104U 19018AC 21350.19616072 .00002103 00000-0 65367-4 0 9992 2 44104 97.4124 67.8943 0056960 68.6950 292.0360 15.32925257151504 Prox-1 1 44339U 19036A 21350.47879149 .00001178 00000-0 22492-3 0 9991 2 44339 23.9999 267.4708 0010316 14.0756 346.0022 14.53981561131683 Oculus-ASR 1 44348U 19036K 21350.31587655 .00017994 00000-0 22087-3 0 9995 2 44348 28.5100 357.9424 0302483 84.9277 278.5766 15.19537675136529 Armadillo 1 44352U 19036P 21350.24207011 .00031788 -56512-5 32098-3 0 9992 2 44352 28.5267 319.6536 0253809 144.8241 216.9398 15.32165683136855 NO-104 1 44354U 19036R 21350.27562218 .00019057 00000-0 22742-3 0 9995 2 44354 28.5261 348.5311 0296052 97.6663 265.7653 15.21398577136611 NO-103 1 44355U 19036S 21350.44561213 .00054208 -58593-5 42534-3 0 9993 2 44355 28.5255 264.0769 0197457 235.3120 122.8731 15.48119984137479 Move-IIb 1 44398U 19038N 21350.90410768 .00002439 00000-0 13413-3 0 9998 2 44398 97.6065 314.4645 0024938 42.9872 317.3302 15.14793272135377 SONATE 1 44400U 19038Q 21350.61326964 .00001160 00000-0 68955-4 0 9996 2 44400 97.6155 313.8459 0026052 45.4130 314.9223 15.13042827135277 BeeSat 9 1 44412U 19038AC 21350.86224192 .00002962 00000-0 16543-3 0 9992 2 44412 97.6127 314.5348 0023142 48.1906 312.1297 15.14098279135041 JAISAT-1 1 44419U 19038F 21350.64150417 .00003090 00000-0 17020-3 0 9997 2 44419 97.6131 315.0063 0022016 46.9471 313.3599 15.14583064135369 LightSail-2 1 44420U 19036AC 21350.07894486 .00015963 00000-0 30135-2 0 9998 2 44420 24.0046 236.2804 0007719 77.1600 282.9755 14.62869210130081 Taurus 1 1 44530U 19059C 21350.89593353 .00000571 00000-0 17152-3 0 9998 2 44530 98.5504 82.8047 0012401 312.2574 47.7562 14.46348197119458 Duchifat 3 1 44854U 19089C 21350.56244529 .00000778 00000-0 67937-4 0 9998 2 44854 36.9647 103.4245 0006881 181.5879 178.4846 14.99855441110452 OPS-SAT 1 44878U 19092F 21350.46099368 .00002018 00000-0 10462-3 0 9995 2 44878 97.4746 171.4396 0012104 256.4254 103.5632 15.17264501110427 TO-108 1 44881U 19093C 21350.49039276 .00000077 00000-0 16496-4 0 9992 2 44881 97.9115 67.2060 0016414 63.6959 296.5940 14.81522012107687 FloripaSat 1 1 44885U 19093G 21350.67028871 .00000385 00000-0 54473-4 0 9994 2 44885 97.9135 68.2655 0015836 70.6587 289.6341 14.82504002107763 RS-44 1 44909U 19096E 21350.47949382 .00000037 00000-0 10011-3 0 9994 2 44909 82.5211 351.8619 0217949 27.8180 333.4377 12.79711587 92108 Phoenix 1 45258U 98067RB 21350.58613610 .00028903 00000-0 31915-3 0 9999 2 45258 51.6356 134.0726 0005622 213.6929 146.3708 15.62803322103625 QARMAN 1 45263U 98067RG 21350.59127356 .00126151 00000-0 66173-3 0 9991 2 45263 51.6318 116.0093 0005829 258.0481 101.9867 15.79857310103921 Quetzal 1 1 45598U 98067RL 21350.67664495 .00086543 00000-0 59274-3 0 9995 2 45598 51.6350 124.1706 0002951 270.6218 89.4442 15.74006005 93097 BY70-2 1 45857U 20042B 21350.50341274 .00001391 00000-0 20129-3 0 9995 2 45857 97.9724 64.3121 0010073 353.8065 6.3033 14.77684239 78424 UPMSat 2 1 46276U 20061E 21350.44833916 .00001037 00000-0 56028-4 0 9999 2 46276 97.4155 60.4242 0003059 91.0646 269.0938 15.16875434 71121 AmicalSat 1 46287U 20061R 21350.19385173 .00001415 00000-0 88492-4 0 9990 2 46287 97.4706 59.3475 0002938 160.0927 200.0418 15.10996595 70789 SALSAT 1 46495U 20068K 21350.60867211 .00000007 00000-0 50595-5 0 9992 2 46495 97.7109 287.1930 0016810 169.1672 190.9919 15.03709033 66709 BY70-3 1 46839U 20079N 21350.58890898 .00004403 00000-0 12967-3 0 9993 2 46839 97.2243 60.8496 0005198 273.9185 224.1182 15.35556450 62131 SPOC 1 46921U 98067RR 21350.56966363 .00024343 00000-0 29759-3 0 9998 2 46921 51.6377 144.5528 0000668 98.8736 261.2333 15.60271664 63235 Bobcat-1 1 46922U 98067RS 21350.73245864 .00049152 00000-0 47667-3 0 9997 2 46922 51.6390 138.1746 0000967 193.8874 166.2095 15.65853198 63280 Neutron-1 1 46923U 98067RT 21350.60048179 .00025455 00000-0 31235-3 0 9998 2 46923 51.6382 144.7591 0001020 115.9991 244.1108 15.60146418 63263 CAPE 3 1 47309U 21002A 21350.51656339 .00002582 00000-0 12320-3 0 9995 2 47309 60.6839 330.8541 0036343 146.3210 214.0197 15.21740876 50580 AO-109 1 47311U 21002C 21350.52219204 .00001863 00000-0 90394-4 0 9994 2 47311 60.6857 329.2239 0033412 140.5230 219.8301 15.22554677 50584 MiTEE 1 1 47314U 21002F 21350.51202437 .00004904 00000-0 20431-3 0 9999 2 47314 60.6847 326.2441 0035197 132.1776 228.2310 15.24759791 50650 ExoCube 2 1 47319U 21002L 21350.93191029 .00002129 00000-0 10262-3 0 9992 2 47319 60.6861 328.3495 0034088 142.4171 217.9308 15.22176614 50606 UVSQ-SAT 1 47438U 21006AB 21350.73586616 .00001750 00000-0 10059-3 0 9999 2 47438 97.4656 48.5215 0012493 181.5029 178.6167 15.13740100 49624 YUSAT 1 1 47439U 21006AC 21350.80017408 .00002007 00000-0 11454-3 0 9992 2 47439 97.4660 48.6009 0012350 181.5089 178.6108 15.13828810 49631 SOMP 2b 1 47445U 21006AJ 21350.70502823 .00001758 00000-0 10155-3 0 9997 2 47445 97.4626 48.2900 0012021 185.1836 174.9273 15.13545264 49610 IDEASSat 1 47458U 21006AX 21350.73447813 .00001633 00000-0 94980-4 0 9992 2 47458 97.4718 48.6428 0011189 182.7033 177.4139 15.13406325 49614 RSP-01 1 47925U 98067SB 21350.85530136 .00026087 00000-0 34862-3 0 9998 2 47925 51.6391 150.9494 0000420 291.9903 68.1045 15.57865092 43149 TAUSAT-1 1 47926U 98067SC 21350.94177527 .00035798 00000-0 43422-3 0 9991 2 47926 51.6375 148.5100 0001012 297.9377 62.1514 15.60264006 43178 Tsuru 1 47927U 98067SD 21350.84418175 .00022793 00000-0 31490-3 0 9991 2 47927 51.6389 151.6238 0000482 305.1487 54.9460 15.57055228 43130 STARS-EC 1 47928U 98067SE 21350.87959754 .00041323 00000-0 49737-3 0 9991 2 47928 51.6377 149.5972 0003188 102.2239 257.9111 15.60395579 43145 Maya-2 1 47929U 98067SF 21350.83981644 .00023017 00000-0 31789-3 0 9999 2 47929 51.6388 151.5920 0000589 304.3515 55.7421 15.57058029 43092 OPUSAT-II 1 47930U 98067SG 21350.60606105 .00044481 00000-0 52012-3 0 9992 2 47930 51.6377 150.0329 0001352 244.2000 115.8854 15.61121148 43130 GuaraniSat-1 1 47931U 98067SH 21350.83613757 .00022256 00000-0 30709-3 0 9994 2 47931 51.6389 151.5739 0000646 310.5518 49.5418 15.57104916 43139 CubeSX-Sirius-HSE 1 47951U 21022V 21350.58301000 .00001163 00000-0 83410-4 0 9992 2 47951 97.5457 248.9521 0023211 53.3379 306.9981 15.06089164 40465 CubeSX-HSE 1 47952U 21022W 21350.59767428 .00000877 00000-0 63855-4 0 9996 2 47952 97.5452 248.9765 0023332 52.6315 65.0689 15.06126526 40469 KSU-Cubesat 1 47954U 21022Y 21350.22817617 .00000876 00000-0 63640-4 0 9995 2 47954 97.5454 248.6613 0022833 53.3722 306.9600 15.06237019 40131 GRBAlpha 1 47959U 21022AD 21350.77528366 .00000920 00000-0 66776-4 0 9993 2 47959 97.5454 249.1712 0023231 52.6307 307.7031 15.06134398 39317 Orbicraft-Zorkiy 1 47960U 21022AE 21350.91978091 .00000651 00000-0 48382-4 0 9999 2 47960 97.5466 249.3821 0023069 51.7375 79.3055 15.06209823 40023 STECCO 1 47962U 21022AG 21350.77722493 .00001322 00000-0 91050-4 0 9994 2 47962 97.5431 249.5623 0018201 48.6286 356.0355 15.07450594 39331 DO-111 1 47963U 21022AH 21350.46125347 .00004602 00000-0 29699-3 0 9999 2 47963 97.5464 249.5502 0020574 45.0190 315.2702 15.08594183 39321 MO-110 1 47964U 21022AJ 21350.52163222 .00002152 00000-0 14431-3 0 9997 2 47964 97.5449 249.4483 0020847 45.9090 314.3849 15.07747066 39302 FEES 1 48082U 21022AL 21350.46094230 .00002992 00000-0 20067-3 0 9998 2 48082 97.5462 249.2612 0017149 44.0743 316.1848 15.07493340 38993 RamSat 1 48850U 98067SL 21350.20290472 .00014970 00000-0 23780-3 0 9996 2 48850 51.6394 159.3062 0004301 108.6650 251.4808 15.53551885 28728 MO-112 1 48868U 98067SP 21350.73386999 .00044156 00000-0 57847-3 0 9993 2 48868 51.6376 154.6018 0002919 148.8968 211.2198 15.58126615 27614 TUBIN 1 48900U 21059X 21350.93357307 .00000516 00000-0 33321-4 0 9994 2 48900 97.5304 117.2227 0010902 21.3335 126.7187 15.12549230 26318 IT-SPINS 1 49017U 21013G 21350.53520632 .00001251 00000-0 65649-4 0 9998 2 49017 51.5946 192.7951 0007300 120.8428 239.3268 15.23491437 25876 LEDSAT 1 49069U 21073D 21350.16984352 .00001052 00000-0 73155-4 0 9993 2 49069 97.5468 61.6872 0027522 198.8618 161.1593 15.07377512 18214 CUTE 1 49263U 21088D 21350.16538641 .00000237 00000-0 22752-4 0 9992 2 49263 97.6112 56.7399 0017685 336.9713 23.0717 15.01772980 11901 Binar-1 1 49272U 98067SR 21350.85113184 .00015044 00000-0 25293-3 0 9994 2 49272 51.6395 158.3729 0003800 359.3470 0.7514 15.51960339 11182 Maya-3 1 49273U 98067SS 21350.77726665 .00020291 00000-0 33305-3 0 9993 2 49273 51.6392 158.6301 0003378 352.5662 7.5278 15.52397383 11172 Maya-4 1 49274U 98067ST 21350.77937587 .00020081 00000-0 33036-3 0 9999 2 49274 51.6395 158.6442 0003293 351.2444 8.8487 15.52340413 11170 CUAVA-1 1 49275U 98067SU 21350.92868340 .00013944 00000-0 23186-3 0 9992 2 49275 51.6420 157.8590 0003334 8.5574 124.1094 15.52342490 11147 TeikyoSat 4 1 49396U 21102B 21350.63006211 .00000031 00000-0 70825-5 0 9998 2 49396 97.5582 49.1262 0015986 140.6619 219.5770 15.00259655 5632 Z-Sat 1 49399U 21102E 21350.52154467 .00001140 00000-0 91238-4 0 9998 2 49399 97.5613 49.1216 0020482 128.9173 231.3885 15.01966896 5621 KOSEN 1 1 49402U 21102H 21350.56598924 .00000530 00000-0 43757-4 0 9992 2 49402 97.5602 49.1968 0024380 120.1120 240.2537 15.02864541 5634 /EX